Opa-locka, FL

6:36 AM EST on December 07, 2016 (GMT -0500)
Opa Locka

Weather History for KOPF - January, 2014

Change the Weather History Date:

Thursday, January 30, 2014

  Actual Average Record
Temperature  
Mean Temperature 64 °F -  
Max Temperature 69 °F 76 °F 86 °F (1990)
Min Temperature 60 °F 56 °F 28 °F (1986)
Growing Degree Days 14 (Base 50)    
Moisture  
Dew Point 65 °F    
Average Humidity 99    
Maximum Humidity 100    
Minimum Humidity 90    
Precipitation  
Precipitation 0.53 in - - ()
Sea Level Pressure  
Sea Level Pressure 30.07 in    
Wind  
Wind Speed 7 mph (North)    
Max Wind Speed 12 mph    
Max Gust Speed 17 mph    
Visibility 9 miles    
Events Rain    
Averages and records for this station are not official NWS values.
T = Trace of Precipitation, MM = Missing Value Source: NWS Daily Summary

Daily Weather History Graph

Daily Weather History Graph

Search for Another Location

Airport or City:

Trip Planner

Search our weather history database for the weather conditions in past years. The results will help you decide how hot, cold, wet, or windy it might be!

Date:

Astronomy

Jan. 30, 2014 Rise Set
Actual Time 7:05 AM EST 6:03 PM EST
Civil Twilight 6:41 AM EST 6:27 PM EST
Nautical Twilight 6:14 AM EST 6:55 PM EST
Astronomical Twilight 5:46 AM EST 7:22 PM EST
Moon 6:34 AM EST (1/30) 6:07 PM EST (1/30)
Length of Visible Light 11h 45m
Length of Day
10h 57m
Waning Crescent, 0% of the Moon is Illuminated
Jan 30
Waning Crescent
Jan 30
New
Feb 6
First Quarter
Feb 14
Full
Feb 22
Last Quarter

Hourly Weather History & Observations

Time (EST) Temp. Dew Point Humidity Pressure Visibility Wind Dir Wind Speed Gust Speed Precip Events Conditions
12:53 AM 61.0 °F 61.0 °F 100% 30.06 in 10.0 mi North 9.2 mph - N/A   Overcast
1:53 AM 60.1 °F 60.1 °F 100% 30.06 in 10.0 mi NNW 6.9 mph - N/A   Overcast
2:53 AM 60.1 °F 60.1 °F 100% 30.04 in 10.0 mi NNW 8.1 mph - N/A   Overcast
3:53 AM 61.0 °F 61.0 °F 100% 30.05 in 10.0 mi NNW 6.9 mph - 0.00 in   Overcast
4:53 AM 61.0 °F 61.0 °F 100% 30.05 in 10.0 mi NW 6.9 mph - 0.00 in   Overcast
5:53 AM 61.0 °F 61.0 °F 100% 30.05 in 10.0 mi NW 5.8 mph - 0.03 in Rain Light Rain
6:53 AM 62.1 °F 62.1 °F 100% 30.06 in 10.0 mi NNW 4.6 mph - 0.00 in   Overcast
7:53 AM 63.0 °F 63.0 °F 100% 30.08 in 3.0 mi NNW 6.9 mph - N/A   Overcast
8:53 AM 64.0 °F 64.0 °F 100% 30.09 in 10.0 mi NNW 10.4 mph 17.3 mph N/A   Overcast
9:10 AM 64.4 °F 64.4 °F 100% 30.09 in 10.0 mi North 10.4 mph - N/A   Overcast
9:53 AM 66.9 °F 66.0 °F 97% 30.11 in 10.0 mi North 10.4 mph - N/A   Overcast
10:53 AM 69.1 °F 66.0 °F 90% 30.12 in 10.0 mi NNW 6.9 mph - 0.00 in Rain Light Rain
11:53 AM 68.0 °F 66.0 °F 93% 30.11 in 3.0 mi North 3.5 mph - 0.03 in Rain Rain
12:53 PM 69.1 °F 66.9 °F 93% 30.07 in 10.0 mi NE 8.1 mph - 0.01 in Rain Light Rain
1:53 PM 69.1 °F 68.0 °F 96% 30.06 in 10.0 mi NW 6.9 mph - 0.02 in Rain Light Rain
2:53 PM 66.9 °F 66.9 °F 100% 30.05 in 10.0 mi North 8.1 mph - 0.00 in   Overcast
3:53 PM 68.0 °F 66.9 °F 96% 30.05 in 10.0 mi North 8.1 mph - 0.00 in   Overcast
4:53 PM 66.9 °F 66.9 °F 100% 30.06 in 10.0 mi North 5.8 mph - 0.03 in Rain Light Rain
5:48 PM 66.2 °F 66.2 °F 100% 30.07 in 3.0 mi NNE 5.8 mph - 0.02 in Rain Light Rain
5:53 PM 66.9 °F 66.9 °F 100% 30.07 in 3.0 mi North 5.8 mph - 0.02 in Rain Light Rain
6:00 PM 66.2 °F 66.2 °F 100% 30.07 in 10.0 mi NNE 6.9 mph - 0.00 in Rain Light Rain
6:53 PM 66.0 °F 66.0 °F 100% 30.06 in 9.0 mi NE 4.6 mph - 0.04 in Rain Rain
7:11 PM 66.2 °F 66.2 °F 100% 30.06 in 8.0 mi North 4.6 mph - 0.03 in Rain Rain
7:53 PM 66.9 °F 66.9 °F 100% 30.06 in 10.0 mi NE 10.4 mph - 0.08 in Rain Light Rain
8:37 PM 66.2 °F 66.2 °F 100% 30.06 in 10.0 mi ENE 10.4 mph - 0.03 in Rain Light Rain
8:53 PM 68.0 °F 68.0 °F 100% 30.06 in 10.0 mi ENE 11.5 mph - 0.03 in   Overcast
9:18 PM 69.8 °F 69.8 °F 100% 30.06 in 10.0 mi NNE 5.8 mph - 0.00 in Rain Light Rain
9:53 PM 69.1 °F 69.1 °F 100% 30.08 in 6.0 mi North 3.5 mph - 0.06 in Rain Rain
10:38 PM 68.0 °F 68.0 °F 100% 30.07 in 10.0 mi North 4.6 mph - 0.07 in Rain Light Rain
10:53 PM 68.0 °F 68.0 °F 100% 30.08 in 10.0 mi NNW 3.5 mph - 0.08 in Rain Light Rain
11:07 PM 68.0 °F 68.0 °F 100% 30.07 in 8.0 mi North 3.5 mph - 0.01 in Rain Light Rain
11:53 PM 68.0 °F 68.0 °F 100% 30.06 in 6.0 mi NNW 5.8 mph - 0.10 in Rain Rain